Weather History for MMLO - August, 2013

Change the Weather History Date:

Friday, August 16, 2013

  Actual Average Record
Temperature  
Mean Temperature 76 °F -  
Max Temperature 89 °F 79 °F 89 °F (2013)
Min Temperature 62 °F 57 °F 53 °F (2003)
Cooling Degree Days 10    
Growing Degree Days 26 (Base 50)    
Moisture  
Dew Point 48 °F    
Average Humidity 44    
Maximum Humidity 72    
Minimum Humidity 20    
Precipitation  
Precipitation 0.00 in - - ()
Sea Level Pressure  
Sea Level Pressure 30.08 in    
Wind  
Wind Speed 7 mph ()    
Max Wind Speed 20 mph    
Max Gust Speed -    
Visibility 8.9 miles    
Events      
Averages and records for this station are not official NWS values.
T = Trace of Precipitation, MM = Missing Value Source: Averaged Metar Reports

Daily Weather History Graph

Daily Weather History Graph

Search for Another Location

Airport or City:

Trip Planner

Search our weather history database for the weather conditions in past years. The results will help you decide how hot, cold, wet, or windy it might be!

Date:

Astronomy

Aug. 16, 2013 Rise Set
Actual Time 7:25 AM CDT 8:14 PM CDT
Civil Twilight 7:02 AM CDT 8:37 PM CDT
Nautical Twilight 6:35 AM CDT 9:04 PM CDT
Astronomical Twilight 6:07 AM CDT 9:32 PM CDT
Moon 4:21 PM CDT (8/16) 2:43 AM CDT (8/16)
Length of Visible Light 13h 35m
Length of Day
12h 49m
Waxing Gibbous, 75% of the Moon is Illuminated
Aug 16
Waxing Gibbous
Aug 20
Full
Aug 28
Last Quarter
Sep 5
New
Sep 12
First Quarter

Hourly Weather History & Observations

Time (CDT) Temp. Dew Point Humidity Pressure Visibility Wind Dir Wind Speed Gust Speed Precip Events Conditions
12:45 AM 66.2 °F 48.2 °F 52% 29.83 in 8.0 mi East 6.9 mph - N/A   Scattered Clouds
1:45 AM 62.6 °F 51.8 °F 68% 30.27 in 8.0 mi ENE 6.9 mph - N/A   Scattered Clouds
2:50 AM 62.6 °F 51.8 °F 68% 30.25 in 8.0 mi ENE 9.2 mph - N/A   Scattered Clouds
3:46 AM 62.6 °F 53.6 °F 72% 29.83 in 8.0 mi Calm Calm - N/A   Scattered Clouds
4:43 AM 62.6 °F 53.6 °F 72% 30.25 in 8.0 mi East 6.9 mph - N/A   Scattered Clouds
5:47 AM 62.6 °F 53.6 °F 72% 30.23 in 8.0 mi ENE 6.9 mph - N/A   Scattered Clouds
6:50 AM 62.6 °F 51.8 °F 68% 29.85 in 8.0 mi NE 6.9 mph - N/A   Mostly Cloudy
7:47 AM 62.6 °F 51.8 °F 68% 30.22 in 8.0 mi NNE 6.9 mph - N/A   Mostly Cloudy
8:45 AM 69.8 °F 51.8 °F 53% 30.24 in 8.0 mi NE 8.1 mph - N/A   Mostly Cloudy
9:42 AM 73.4 °F 48.2 °F 41% 29.85 in 10.0 mi NE 6.9 mph - N/A   Scattered Clouds
10:50 AM 78.8 °F 48.2 °F 34% 30.27 in 10.0 mi South 6.9 mph - N/A   Partly Cloudy
11:50 AM 78.8 °F 50.0 °F 36% 30.25 in 10.0 mi Calm Calm - N/A   Partly Cloudy
12:45 PM 80.6 °F 46.4 °F 30% 29.79 in 10.0 mi SE 9.2 mph - N/A   Partly Cloudy
1:48 PM 82.4 °F 48.2 °F 30% 30.22 in 10.0 mi SW 6.9 mph - N/A   Partly Cloudy
2:40 PM 84.2 °F 48.2 °F 29% 30.21 in 10.0 mi ESE 4.6 mph - N/A   Scattered Clouds
3:55 PM 87.8 °F 44.6 °F 22% 29.69 in 10.0 mi South 5.8 mph - N/A   Scattered Clouds
4:48 PM 89.6 °F 42.8 °F 20% 30.15 in 10.0 mi Calm Calm - N/A   Scattered Clouds
5:42 PM 89.6 °F 44.6 °F 21% 30.12 in 10.0 mi NW 8.1 mph - N/A   Scattered Clouds
6:49 PM 84.2 °F 39.2 °F 20% 29.69 in 10.0 mi East 12.7 mph - N/A   Scattered Clouds
7:41 PM 80.6 °F 39.2 °F 23% 30.18 in 10.0 mi East 16.1 mph - N/A   Scattered Clouds
8:46 PM 73.4 °F 42.8 °F 33% 30.21 in 8.0 mi ENE 9.2 mph - N/A   Scattered Clouds
9:45 PM 71.6 °F 48.2 °F 43% 29.80 in 8.0 mi ENE 9.2 mph - N/A   Scattered Clouds
10:44 PM 69.8 °F 51.8 °F 53% 30.24 in 8.0 mi NE 19.6 mph - N/A   Clear
11:45 PM 69.8 °F 39.2 °F 33% 30.24 in 8.0 mi ENE 18.4 mph - N/A   Clear